RH
14 14 15 15 16 15 15 15 15 15 16 16 16 17 17 17 18 18 18 17 17 18 18 19 20 22 23 24 25 25 26 26 27 27 27 25 25 26 25 26 26 27 29 32 33 36 37 39 40 39 39 37 36 36 35 34 34 34 34 34 33 32 32 32 33 32 32 30 30 29 29 29 28 27 26 26 26 25 24 24 22 20 20 20 19 17 16 16 15 15 15 15 15 14 14 13 13
13 13 13 14 15 15 16 16 16 16 17 17 16 16 16 16 16 16 16 16 16 16 16 17 18 19 21 22 23 24 24 24 24 24 24 24 24 24 24 24 24 24 24 25 26 27 28 29 29 30 30 29 29 29 29 28 28 28 28 29 29 28 28 27 27 26 26 25 24 24 24 24 24 23 22 22 22 22 21 22 19 18 18 20 20 16 15 15 13 13 13 13 12 12 12 12 11
12 12 12 13 13 13 13 13 14 14 15 15 16 16 16 15 15 14 14 14 15 15 15 16 17 17 18 19 20 21 22 23 23 23 23 23 23 23 23 23 23 24 24 24 24 24 24 24 24 24 24 24 23 23 23 23 22 22 22 22 23 23 23 23 23 22 21 21 20 20 20 20 20 19 19 18 18 18 18 18 17 16 15 16 17 17 16 15 13 13 12 11 11 11 10 10 10
12 12 12 12 12 12 12 12 11 11 12 12 13 14 14 15 14 14 13 13 13 14 15 15 16 16 16 17 17 17 18 19 21 21 22 22 22 22 22 22 23 23 23 23 23 23 23 23 23 22 22 21 21 20 20 20 19 19 19 18 18 18 18 18 18 18 17 17 17 16 16 16 16 16 16 15 15 15 14 14 13 14 14 13 13 14 13 12 13 11 10 10 9 10 9 9 8
11 12 12 13 13 12 12 12 11 11 11 11 11 11 11 12 12 12 12 13 13 13 14 15 15 15 15 15 15 15 16 17 17 18 19 20 20 20 21 21 21 21 21 21 21 21 22 22 22 22 21 21 20 20 19 19 18 17 17 16 16 16 16 16 16 16 15 15 14 14 14 13 13 13 13 13 13 12 12 11 11 11 11 11 11 12 11 11 11 10 10 9 9 9 9 8 7
12 12 12 13 13 14 14 13 12 12 11 11 10 10 10 10 10 11 11 11 12 12 13 14 14 14 14 13 14 14 14 15 16 16 17 17 17 18 18 19 19 19 19 19 19 19 20 20 20 21 21 21 20 20 20 19 18 17 17 16 15 15 15 14 14 14 14 14 14 13 13 13 12 12 11 11 10 10 10 9 9 9 9 9 9 10 10 9 9 9 9 9 9 9 8 8 7
17 16 15 14 14 14 14 14 14 13 12 12 11 11 10 10 10 10 10 10 10 11 11 12 12 13 13 13 13 13 13 14 14 15 15 15 16 16 17 17 17 17 18 18 18 18 19 19 18 19 19 19 19 19 20 19 19 18 17 16 16 15 14 14 13 13 13 13 13 13 13 12 12 11 11 11 10 10 10 9 9 8 8 8 7 8 7 7 7 8 8 8 8 8 9 9 8
25 24 22 20 19 17 16 15 14 13 13 12 12 12 11 11 10 10 10 10 10 10 10 10 11 11 12 12 12 12 12 13 13 14 13 14 14 14 15 15 16 16 17 17 17 18 18 18 17 17 17 18 18 18 18 18 18 18 17 17 16 15 15 14 13 13 12 12 12 12 12 12 12 12 11 11 11 10 10 10 10 9 9 8 8 7 7 6 6 6 7 7 7 7 8 8 9
29 28 27 26 24 23 21 19 17 15 14 13 12 11 11 11 10 10 10 10 10 9 10 10 10 10 10 10 11 11 11 12 12 12 12 13 13 13 13 13 13 14 14 15 16 16 16 16 16 16 16 16 16 16 16 16 16 16 16 16 16 15 15 14 14 13 13 12 12 12 12 12 12 12 12 11 11 11 11 11 10 10 10 9 9 8 7 7 7 7 6 7 7 7 7 7 7
30 29 28 28 27 25 24 23 22 20 19 17 15 12 11 10 10 10 10 10 10 10 10 11 10 10 10 9 10 10 10 11 11 11 11 11 11 12 12 12 12 12 12 13 13 14 14 14 15 15 15 15 15 15 15 15 15 15 15 15 15 15 14 14 14 13 13 13 13 12 12 12 12 12 12 12 12 11 11 11 11 10 10 10 10 9 8 8 8 8 8 7 7 7 7 7 6
30 29 27 27 26 25 24 23 23 23 22 21 19 17 15 13 11 10 10 10 10 10 10 11 11 11 10 9 9 9 9 10 10 10 10 10 10 11 11 11 11 11 12 12 12 12 12 13 13 14 14 14 14 14 13 13 13 13 14 14 14 14 14 14 14 13 13 13 13 13 13 13 12 12 12 12 12 12 12 12 12 11 11 11 11 10 10 9 9 9 8 8 8 8 8 7 7
29 27 26 24 23 22 22 22 22 22 22 22 22 21 19 17 15 13 12 12 11 10 10 10 10 10 10 10 9 9 9 9 10 9 9 9 9 10 10 10 10 10 11 11 11 11 11 12 12 13 13 13 13 13 13 13 12 12 12 12 12 13 13 13 13 13 13 13 12 12 12 13 13 13 13 13 13 12 12 12 12 12 12 12 11 11 11 11 10 10 9 9 9 9 9 8 8
29 26 24 22 21 20 19 20 21 22 23 22 23 22 21 20 19 17 15 14 12 11 11 10 9 9 9 9 9 9 10 10 10 10 9 9 9 9 9 9 9 9 10 10 10 10 10 10 10 11 12 12 13 13 12 12 12 12 12 12 12 11 11 11 12 12 12 12 12 12 12 12 12 13 13 13 13 13 13 13 12 13 12 12 12 12 12 12 11 11 10 10 9 10 10 9 9
29 26 23 21 19 19 19 19 20 22 24 24 24 22 21 20 19 18 17 16 15 14 14 13 12 11 10 9 9 8 9 9 9 9 9 9 9 9 9 9 9 9 9 9 9 9 9 9 9 9 9 10 10 11 11 12 12 12 12 11 12 11 11 11 11 11 11 11 11 12 12 12 12 12 13 13 13 13 14 14 13 13 13 13 13 13 13 13 12 12 11 11 10 10 11 11 10
29 27 24 21 19 19 18 18 19 21 24 26 25 23 21 20 19 18 18 18 17 17 17 17 16 15 14 12 11 10 9 9 9 9 9 9 9 9 9 9 9 9 9 9 9 9 9 9 9 8 8 8 8 9 9 10 11 11 11 11 11 11 11 11 11 11 11 11 11 11 11 12 12 12 13 13 13 14 14 14 14 14 14 14 14 14 14 14 14 14 13 13 12 13 13 13 12
30 28 25 23 21 21 20 19 18 19 22 25 25 23 22 20 19 18 17 17 18 18 19 19 18 18 17 16 14 13 12 11 10 10 9 9 9 9 9 9 9 9 9 9 9 9 9 9 9 8 8 8 8 8 8 8 9 9 10 10 11 11 11 11 11 11 11 11 11 11 11 11 12 12 12 13 13 14 14 14 15 15 15 15 15 16 15 16 16 15 15 16 16 17 17 16 16
31 28 26 24 24 24 23 21 18 17 19 23 25 24 22 20 18 18 17 16 16 17 18 18 18 18 18 17 16 15 14 13 12 11 10 10 9 9 8 8 8 8 8 8 9 9 9 8 8 8 8 8 8 8 8 8 8 8 9 9 10 10 11 11 11 11 11 11 11 10 10 11 11 12 12 13 13 14 14 15 15 15 16 16 16 16 16 17 17 17 18 19 20 20 20 20 19
32 29 26 25 25 26 25 24 21 18 18 21 26 25 23 21 19 18 17 16 16 16 16 17 18 17 17 17 16 16 16 15 14 13 12 11 10 10 9 8 8 8 8 8 8 8 8 8 8 8 8 8 8 8 8 8 8 8 8 9 9 9 10 10 11 11 12 11 11 11 11 11 11 11 12 12 13 14 14 15 15 16 16 16 17 17 17 17 17 18 19 20 21 22 23 23 22
35 30 27 26 26 26 24 24 22 20 19 18 22 25 23 21 19 17 17 16 16 16 17 18 18 19 19 18 17 17 17 16 16 15 15 14 13 12 11 10 10 9 9 8 8 8 8 8 8 8 8 7 7 7 8 8 8 8 8 8 9 9 9 9 9 10 11 11 11 12 11 12 12 12 12 12 13 14 14 15 15 16 17 17 17 17 17 18 18 19 19 20 21 23 24 25 25
39 33 29 29 28 25 23 22 22 21 20 18 19 22 23 22 19 17 16 16 16 15 16 17 18 19 19 19 19 19 18 18 17 17 17 17 16 15 14 13 12 11 10 9 8 8 8 8 8 8 8 7 7 7 7 7 7 8 7 7 8 8 9 9 9 9 9 9 10 11 11 12 12 13 12 12 12 13 14 15 15 16 17 18 18 18 18 18 18 19 19 20 21 22 25 27 28
45 36 33 31 31 27 23 20 20 20 20 20 18 19 21 21 20 19 18 17 18 18 17 17 18 18 19 19 19 19 18 18 17 17 17 17 17 16 16 15 14 13 12 11 10 9 8 8 8 7 7 7 6 6 6 7 7 7 7 7 7 7 8 8 9 9 9 9 9 9 10 11 11 12 12 12 12 13 13 14 15 16 17 18 19 19 19 19 19 19 19 20 21 23 25 28 29
50 38 35 33 32 29 23 19 19 19 20 21 19 19 19 19 20 20 20 19 20 21 20 20 19 19 19 19 19 18 18 18 17 17 17 16 16 15 15 14 14 13 12 12 11 10 9 8 8 7 7 7 6 6 6 6 6 7 7 7 7 7 7 7 7 8 9 9 9 9 9 9 10 10 11 11 12 12 13 13 14 15 16 17 18 18 19 19 20 20 20 21 22 24 27 29 30
51 38 36 35 34 31 26 21 19 19 20 21 21 20 20 19 19 20 20 20 20 21 21 21 21 21 20 20 20 20 19 18 18 17 17 16 16 15 14 13 12 11 11 11 10 10 10 9 9 8 8 8 7 6 6 5 6 6 6 6 6 6 6 6 6 7 7 8 8 9 9 9 9 10 10 11 11 12 13 13 14 15 16 16 17 17 18 18 19 20 21 22 22 25 28 30 31
48 37 38 39 38 36 31 25 21 21 21 23 21 21 22 21 20 20 20 20 20 21 21 21 21 21 21 21 21 20 20 20 20 19 19 18 18 17 15 14 12 11 10 10 10 10 10 10 9 9 9 9 8 7 7 6 6 6 6 6 6 6 6 6 6 6 6 7 7 8 9 9 9 9 10 10 11 12 13 13 14 14 15 16 16 16 17 17 18 19 21 22 23 25 27 29 30
47 41 44 44 43 43 39 30 24 22 22 24 22 21 23 22 21 20 20 20 20 20 20 20 20 20 19 20 20 19 20 19 20 20 20 20 20 20 19 18 16 14 12 10 10 9 9 10 9 9 9 9 9 8 8 7 6 6 6 6 6 6 6 6 5 6 6 6 7 8 8 9 9 9 9 10 10 11 12 13 14 14 14 15 15 15 16 17 17 18 20 21 22 24 26 27 28
48 47 52 50 48 49 46 37 28 24 23 24 23 22 23 23 22 21 20 20 19 19 19 19 19 18 18 17 17 17 17 17 18 18 19 18 18 19 19 19 18 18 17 14 12 11 9 9 9 9 9 9 9 9 8 8 7 7 6 6 6 6 6 6 6 5 5 5 6 7 8 9 10 9 9 9 9 10 11 12 13 14 14 14 14 15 15 16 17 18 19 20 21 23 25 27 27
53 54 56 53 50 50 49 41 31 25 24 25 25 24 23 23 23 22 22 21 19 17 17 18 18 17 17 16 16 16 16 16 16 16 16 16 16 16 16 16 17 17 17 16 15 14 12 11 10 9 9 9 9 9 9 9 8 8 7 6 6 6 6 6 6 6 5 5 5 6 7 9 10 11 10 10 9 10 10 11 13 14 15 15 15 15 16 16 16 17 18 18 19 22 24 25 27
59 60 58 55 52 52 51 45 35 28 25 26 27 26 25 24 24 23 23 22 21 19 17 17 17 16 15 15 16 15 15 15 15 15 15 15 15 14 15 14 14 15 15 15 15 15 14 13 12 11 10 9 9 9 9 9 9 9 9 8 7 6 6 6 6 7 6 6 5 5 6 7 8 10 11 11 11 10 10 10 11 13 14 15 16 17 17 17 17 17 17 18 18 20 22 24 25
63 65 62 61 60 59 57 51 40 32 29 28 29 28 27 26 26 24 23 23 22 21 20 18 17 16 15 16 16 16 15 15 15 15 14 14 14 14 14 14 13 14 14 14 14 15 15 15 14 13 12 10 9 9 9 9 9 9 9 9 9 8 7 7 6 6 7 6 6 6 6 6 7 8 9 11 12 12 11 10 10 11 12 14 16 17 18 19 20 20 19 19 18 19 20 22 24
65 68 67 66 67 67 65 58 44 36 33 31 30 30 29 28 28 26 25 24 24 23 22 21 18 16 16 17 17 17 15 15 15 15 15 14 14 14 13 13 13 13 13 14 14 15 15 15 15 14 13 12 11 10 9 9 9 9 9 9 9 9 9 9 8 7 7 7 7 7 7 7 7 7 8 9 11 12 12 12 11 11 11 13 14 15 17 19 21 22 22 22 21 20 20 21 23
66 70 70 69 72 73 72 67 52 40 36 34 33 31 30 30 30 28 26 26 26 24 23 23 20 17 19 20 18 19 17 16 16 15 15 15 14 15 14 14 13 13 13 13 13 14 14 15 14 15 14 14 13 12 11 9 9 8 8 8 9 9 10 10 10 10 9 8 8 8 8 8 9 9 9 9 10 11 12 13 12 12 12 12 13 14 15 17 20 22 24 25 25 24 23 22 22
64 70 72 71 75 77 77 76 62 47 40 36 35 34 31 31 30 30 28 28 29 27 25 25 23 20 21 22 21 22 20 17 17 16 16 16 16 16 15 15 14 13 13 12 12 12 13 14 14 15 15 15 14 13 12 11 10 9 9 9 8 9 9 10 11 12 11 11 10 9 9 10 10 9 9 9 9 10 11 12 13 13 13 13 14 14 15 16 17 20 23 26 27 28 28 27 26
59 66 72 73 77 80 82 84 74 56 45 39 38 36 34 32 32 31 29 30 31 30 28 29 27 23 23 24 24 24 23 20 19 19 19 18 18 17 17 16 16 15 14 13 13 12 12 13 14 14 15 15 15 15 14 13 12 11 11 10 9 9 9 9 10 11 12 13 12 11 11 11 10 9 8 8 8 9 11 12 13 13 13 14 15 15 15 15 16 18 21 24 27 28 30 32 33
54 60 70 73 76 82 86 91 83 64 51 43 41 40 37 35 34 33 30 30 34 33 31 33 31 27 26 27 27 27 26 24 22 21 21 20 20 19 19 18 18 17 16 16 15 14 14 14 15 15 16 16 16 16 16 15 15 14 14 13 12 11 10 10 9 10 11 12 13 14 14 14 13 11 9 8 8 8 9 11 12 13 14 14 14 15 16 16 16 17 19 22 25 28 30 33 37
52 56 67 70 72 82 89 92 87 70 57 48 44 43 40 37 36 35 32 31 36 37 33 35 35 31 30 30 30 30 29 27 25 24 23 23 22 21 21 19 18 18 17 17 15 14 15 15 16 16 16 16 16 17 17 17 17 17 16 16 15 15 13 12 11 10 10 11 12 14 15 15 15 14 12 11 10 9 9 10 11 12 13 14 14 15 16 17 17 18 20 21 24 27 30 35 39
52 57 66 67 70 84 92 93 88 73 62 53 46 47 44 40 39 38 35 33 38 40 35 36 38 35 33 32 33 33 31 29 27 26 25 24 23 22 20 18 17 16 16 16 16 15 15 15 15 15 15 15 15 16 17 18 18 18 19 18 18 18 18 17 15 14 12 12 12 13 14 15 16 16 15 13 12 11 11 11 12 13 14 14 15 15 15 17 18 19 21 23 24 26 30 36 40
55 60 68 65 67 85 94 93 88 73 64 59 50 48 47 42 42 41 37 35 40 42 36 35 39 37 36 35 35 35 32 30 29 28 27 25 24 22 21 20 18 18 19 20 20 20 19 17 16 15 15 14 14 15 15 17 17 18 19 19 20 20 21 21 20 19 17 15 14 13 14 15 16 18 17 16 14 13 13 12 13 15 16 16 16 16 16 17 18 19 21 23 25 26 28 34 41
59 62 66 63 66 86 95 91 86 73 66 68 56 47 47 44 44 45 39 37 42 43 37 35 38 37 37 37 37 36 34 31 29 29 28 26 25 24 24 24 24 25 26 27 27 27 25 23 21 20 18 17 17 16 16 16 16 17 18 18 20 20 21 22 22 22 21 20 19 17 16 15 16 17 18 19 18 16 15 13 13 14 16 17 17 17 18 19 19 20 21 22 25 27 29 32 39
65 62 62 61 68 87 97 90 82 70 66 73 62 46 47 45 44 47 43 40 45 45 38 36 37 36 38 40 38 37 34 31 30 30 29 28 27 27 28 29 29 31 32 32 32 32 31 29 28 26 24 23 21 20 18 17 16 16 16 16 17 18 19 20 21 21 22 22 22 21 20 18 17 17 17 18 19 19 18 16 15 14 15 16 17 18 20 21 22 22 23 23 25 28 31 33 37
71 62 57 60 69 88 100 93 79 65 63 74 63 46 48 47 46 51 45 42 49 49 39 35 36 34 38 42 39 37 35 32 32 32 31 30 29 29 29 29 30 31 32 34 34 34 34 32 32 31 29 28 25 24 22 21 19 17 16 15 15 16 16 17 17 18 19 20 20 21 21 21 20 19 18 18 18 19 19 19 17 16 15 16 17 18 20 22 24 26 27 28 28 29 31 34 37
77 64 54 57 66 87 100 93 78 62 60 67 55 42 48 48 49 55 49 44 51 50 38 34 35 33 37 42 41 39 37 36 35 35 34 33 32 31 30 30 30 30 31 32 33 33 34 34 33 33 32 31 30 28 27 25 23 21 19 17 16 15 15 15 16 15 16 16 17 18 19 20 21 21 21 20 19 19 19 19 19 19 17 16 16 17 19 20 23 27 30 32 33 33 35 37 40
80 68 53 53 63 85 97 88 75 61 58 61 47 38 46 49 53 59 55 48 51 51 37 32 34 32 34 39 41 41 39 40 40 39 38 36 36 35 34 34 32 32 32 31 32 32 32 33 33 34 33 33 33 32 31 29 28 26 23 22 20 18 17 16 16 16 16 15 15 15 16 17 19 20 22 21 21 21 20 20 20 20 20 19 18 17 17 18 20 23 26 31 34 36 38 41 45
82 75 55 51 60 80 90 81 71 61 58 61 46 34 41 49 56 62 59 50 49 52 39 30 32 31 33 36 39 43 42 42 41 40 40 37 37 36 35 35 33 33 33 33 33 32 32 32 31 33 33 35 36 35 34 32 31 31 29 27 25 23 21 19 19 18 17 17 16 16 15 15 16 17 19 21 22 22 22 22 21 21 21 21 20 19 18 18 18 20 21 25 29 34 37 41 46
85 84 60 53 57 71 77 70 66 58 58 65 50 34 39 46 54 62 58 46 46 54 42 29 29 29 31 34 37 42 43 42 41 41 41 38 36 36 35 35 33 33 32 32 33 32 33 33 32 33 33 35 37 37 37 36 34 34 33 32 31 28 26 24 23 21 20 20 19 18 17 16 15 15 16 17 19 21 22 23 22 22 22 22 22 21 20 20 19 19 20 21 23 27 31 35 40
84 88 66 56 57 64 63 61 63 52 56 72 56 38 40 42 50 59 51 41 46 56 43 27 26 27 29 32 34 38 41 43 43 41 41 38 35 35 35 36 34 33 32 32 33 33 33 34 34 34 34 35 36 38 40 39 38 37 36 35 34 34 32 29 28 26 25 23 22 21 20 19 18 16 16 15 16 18 20 22 23 23 23 22 22 23 22 22 21 20 21 21 22 24 26 28 32
73 84 71 60 60 63 59 58 61 49 52 69 57 45 46 42 50 54 44 39 46 55 45 26 24 27 28 30 32 36 40 43 43 41 39 37 35 35 35 36 35 34 34 33 34 34 34 34 34 35 35 35 36 38 40 42 42 41 40 38 36 36 35 34 33 31 29 27 26 24 22 21 21 19 18 17 16 16 17 19 21 23 24 23 23 23 23 23 23 22 22 22 22 23 24 26 28
59 75 71 61 62 66 61 58 60 51 49 59 57 58 54 46 51 50 43 42 44 57 52 27 24 29 27 28 30 35 40 41 40 37 35 33 32 32 33 34 34 34 34 34 34 35 36 36 36 36 35 35 36 38 40 44 48 48 46 43 40 38 36 35 34 34 33 32 30 28 26 24 23 22 21 19 18 17 16 16 17 20 22 23 24 24 24 23 23 23 23 23 23 23 24 25 27
53 66 66 62 67 69 63 60 59 53 49 51 59 69 61 50 52 49 49 48 46 66 64 31 25 31 27 28 30 34 38 37 36 33 31 31 29 30 31 31 31 32 33 33 33 34 36 37 39 38 37 36 36 37 40 44 51 56 55 51 46 42 38 36 35 34 34 35 34 32 31 29 27 25 24 22 21 20 19 18 17 17 18 20 22 23 25 24 24 24 23 23 23 23 23 24 25
51 56 60 65 68 67 66 64 60 57 50 42 53 70 62 50 51 48 50 48 50 74 72 37 28 33 29 31 32 33 35 33 32 31 29 29 28 28 29 29 29 30 31 32 32 34 36 37 39 40 41 41 40 39 41 43 48 56 61 61 57 51 44 37 34 34 34 34 35 34 33 32 31 29 27 26 25 24 23 22 21 20 19 19 20 20 22 24 24 25 24 24 24 23 23 23 23
51 53 61 65 65 65 65 63 63 64 52 39 49 65 59 49 48 46 46 49 56 71 66 41 33 35 32 32 34 34 34 32 31 30 29 28 28 28 28 29 29 30 30 31 32 34 36 38 40 42 44 46 47 46 45 45 47 53 62 67 67 63 58 50 40 34 33 33 33 33 33 34 33 32 31 30 28 27 27 26 25 24 24 23 23 22 22 22 22 24 24 24 24 23 23 23 23
57 58 60 60 60 61 60 60 68 68 51 41 48 56 58 55 50 46 45 51 57 63 65 50 35 35 35 33 37 36 33 33 31 30 30 28 28 28 28 29 30 30 31 32 34 36 38 40 43 47 50 51 54 55 53 52 51 53 59 66 69 69 68 66 57 45 36 32 32 32 32 32 33 32 32 32 31 31 30 30 30 28 28 28 27 28 27 26 24 23 23 23 23 24 23 23 23
58 55 53 54 55 58 60 60 68 70 53 42 41 49 64 66 58 54 49 51 57 62 76 66 36 32 38 35 39 39 34 33 32 31 31 29 29 28 28 29 30 31 32 34 37 40 42 45 47 50 54 57 58 59 60 60 58 56 57 63 69 69 69 72 72 62 49 38 32 32 32 31 31 31 31 31 31 32 33 33 33 32 32 31 30 31 32 31 31 28 26 24 23 23 23 23 23
57 53 51 49 51 60 64 58 65 73 58 43 37 40 63 76 74 68 56 53 59 64 82 79 47 35 40 37 38 38 35 34 32 32 32 31 30 30 30 31 32 33 36 38 41 43 46 48 49 50 53 57 59 58 61 63 64 62 58 60 66 68 68 70 72 71 64 51 38 32 32 32 32 31 30 30 30 31 31 32 33 34 34 34 33 34 34 34 34 33 31 28 25 23 21 21 22
56 51 49 45 53 67 64 53 65 77 61 47 40 33 52 82 94 91 77 68 67 68 80 81 59 42 39 38 38 36 35 36 33 31 32 31 31 31 34 35 36 38 40 43 44 45 48 49 50 51 53 56 57 57 60 63 65 64 61 59 62 67 68 68 70 70 68 63 51 39 33 31 32 33 31 31 30 30 30 30 31 32 33 34 35 35 35 35 35 34 33 31 28 25 22 20 20
46 45 43 49 67 75 62 51 65 77 64 49 44 32 41 80 108 105 88 72 66 70 74 72 64 52 41 38 38 35 35 37 35 33 31 31 30 30 34 36 37 40 41 43 44 45 47 50 51 54 56 58 58 57 58 61 63 65 63 60 60 65 68 69 70 68 64 63 61 53 43 33 29 31 32 33 32 32 31 30 30 31 31 33 34 35 36 35 35 34 33 31 29 27 25 22 20
45 44 49 64 78 72 57 55 68 77 64 50 48 36 37 84 114 97 74 64 63 68 64 60 65 57 39 38 42 37 36 40 41 37 34 33 33 31 34 35 36 39 41 43 45 46 48 50 53 56 58 58 57 56 56 57 59 62 62 60 57 60 67 70 71 69 63 60 60 59 56 46 34 29 30 33 34 34 34 33 32 31 31 32 33 33 34 35 35 35 33 30 29 27 25 23 21
52 56 66 76 76 63 57 64 73 75 63 53 51 36 42 92 109 76 59 63 64 66 64 66 76 68 48 45 47 41 40 45 45 45 42 38 35 34 35 37 38 39 42 42 43 45 46 48 51 53 55 56 54 52 52 53 55 56 58 58 56 57 63 69 70 67 62 58 56 56 57 55 46 33 28 31 34 35 35 35 34 33 32 31 31 32 32 33 35 35 34 32 29 27 25 24 22
67 74 78 74 66 62 68 71 70 68 60 55 54 40 51 97 109 83 74 73 67 67 68 74 83 79 63 54 49 44 45 49 52 57 54 45 41 41 41 44 44 44 45 45 43 43 44 47 49 51 52 52 50 49 49 50 52 53 55 56 56 55 58 64 66 64 60 56 55 53 54 55 53 41 29 25 28 30 31 32 32 32 31 30 29 29 30 31 32 33 33 31 28 26 25 23 22
Wind_Speed
47 48 49 51 53 55 56 58 60 61 63 65 67 69 72 74 76 78 79 80 81 82 83 83 84 84 85 85 85 86 86 86 86 86 86 86 85 84 84 84 84 84 84 84 85 85 85 85 85 85 85 85 85 84 84 83 83 82 82 81 81 80 79 79 79 78 78 78 77 76 76 75 75 74 73 72 72 72 70 70 70 68 67 67 67 66 64 64 63 62 61 61 62 60 58 57 56
44 46 47 49 51 52 53 55 57 59 61 63 65 67 69 71 73 75 77 78 79 80 81 82 83 84 85 86 87 88 88 88 87 88 88 87 87 86 86 86 86 86 85 85 86 86 86 86 86 86 87 86 86 85 85 85 84 83 83 82 82 82 81 80 80 79 79 78 78 77 77 76 76 75 74 73 73 73 72 72 71 69 68 68 69 68 64 64 63 62 62 61 62 60 59 58 56
42 44 46 48 50 51 53 54 55 57 59 61 63 65 67 69 71 73 74 75 76 77 79 80 82 84 85 87 88 88 88 88 88 89 89 89 89 88 88 88 88 88 88 87 87 87 88 88 88 88 88 88 87 87 86 86 85 84 84 83 83 83 82 82 81 81 80 79 79 78 78 77 77 76 75 75 74 73 72 72 72 71 70 69 69 69 66 65 64 63 63 62 62 62 60 58 57
39 41 43 46 48 51 52 53 55 56 57 59 61 63 65 67 69 70 71 72 73 75 76 78 80 82 85 86 87 87 88 88 89 89 90 90 90 90 90 90 90 90 90 90 90 90 90 90 90 90 90 89 89 88 88 88 87 86 86 85 84 84 83 83 82 82 81 81 80 79 78 78 77 77 76 76 75 74 73 73 72 71 71 70 69 69 69 67 66 66 64 63 62 62 61 59 58
36 38 41 43 46 48 50 52 54 55 56 58 59 61 62 64 66 68 68 70 71 72 73 76 78 81 82 83 84 85 86 87 88 89 90 91 91 92 92 92 92 92 92 92 92 91 91 91 91 91 91 91 91 90 90 89 89 88 88 87 86 86 85 84 83 83 83 82 81 80 80 79 78 78 77 77 76 76 75 74 73 72 72 71 70 70 70 68 68 67 66 65 64 62 62 61 59
33 35 38 40 42 45 47 49 52 53 55 56 58 59 60 62 64 65 67 68 69 70 72 74 76 78 79 81 82 83 83 85 86 88 89 90 91 92 92 93 93 93 93 93 93 93 93 93 93 93 93 93 93 92 92 91 91 91 90 89 88 88 87 86 85 84 84 83 83 82 82 81 80 79 79 78 78 77 76 76 75 74 73 72 71 71 71 70 69 68 67 66 65 64 63 62 60
32 33 35 37 39 41 44 46 49 51 52 54 55 57 58 60 62 63 65 66 67 68 70 71 73 75 77 79 80 80 80 82 84 86 88 89 90 91 92 93 93 94 94 94 94 94 94 94 94 94 94 94 94 94 94 93 93 93 92 92 91 90 89 88 87 86 85 85 84 84 83 83 82 81 80 80 79 78 78 77 76 75 75 74 73 72 72 71 70 69 69 68 66 65 64 63 62
31 32 34 36 37 39 41 43 46 47 49 51 52 54 56 57 59 60 62 63 65 66 67 69 71 73 75 77 77 77 78 80 82 84 86 87 88 89 91 92 93 93 94 94 95 95 95 96 96 95 95 95 95 95 95 95 95 94 94 93 93 92 91 90 89 88 87 86 85 85 85 84 83 83 82 81 81 80 79 79 78 77 76 76 75 74 73 72 71 71 70 69 68 66 65 64 63
31 33 34 35 37 39 40 42 44 45 47 49 50 52 53 54 55 57 58 60 61 63 64 66 68 70 73 74 74 75 76 78 80 82 84 85 86 88 89 90 91 92 93 93 94 95 95 96 96 96 96 96 96 96 96 96 95 95 95 95 94 94 93 92 92 90 89 88 87 87 86 85 85 84 84 83 82 81 81 80 80 79 78 77 76 75 74 74 73 72 71 70 69 68 67 66 65
32 33 33 35 36 38 40 41 43 44 46 48 49 50 51 52 53 54 55 56 58 59 61 63 65 67 70 71 72 72 74 76 78 80 81 82 84 86 87 88 89 90 91 92 93 94 95 95 95 96 96 96 96 96 96 96 96 96 96 96 95 95 95 94 93 93 92 90 90 89 88 87 86 85 85 84 84 83 83 82 81 81 80 79 78 77 76 75 75 74 74 72 71 70 69 68 66
32 33 33 34 35 36 37 39 41 42 44 46 48 49 50 51 51 51 51 52 54 56 58 59 62 64 66 68 69 70 71 73 75 77 78 80 81 83 85 86 87 88 90 91 92 93 93 94 94 95 95 96 96 96 97 97 96 96 96 96 96 96 96 95 95 94 93 92 91 90 89 89 88 87 86 86 85 85 84 83 83 82 81 80 79 78 78 77 76 76 76 74 73 72 71 70 68
34 34 34 34 34 34 35 35 37 39 41 42 44 46 48 50 51 51 50 50 51 53 54 56 58 60 63 65 66 67 68 70 72 73 75 77 78 80 82 84 85 86 87 89 90 91 92 92 93 93 94 95 96 96 97 97 97 96 96 96 96 96 96 96 96 95 95 94 93 92 91 90 89 88 88 87 87 86 86 85 84 84 83 82 81 80 79 79 78 78 77 76 75 74 73 72 70
35 35 35 35 34 34 34 34 34 36 38 39 40 42 44 45 48 49 49 50 51 51 51 53 55 56 59 61 62 63 65 66 68 70 72 74 75 77 78 80 82 84 85 87 88 89 90 91 91 92 93 93 94 95 96 96 96 96 96 96 96 96 96 95 95 95 95 95 94 93 92 91 90 89 89 88 88 87 87 86 86 85 84 83 82 82 81 80 80 79 78 77 76 75 74 73 72
36 35 35 35 35 35 35 34 34 34 35 36 37 38 39 41 43 45 46 47 49 50 50 51 52 53 55 57 59 60 61 62 64 66 68 70 72 74 75 77 79 81 83 84 86 87 88 89 90 90 91 92 92 93 94 95 95 96 96 96 96 96 96 96 95 95 95 95 94 94 93 92 91 90 90 89 89 88 88 87 87 86 85 85 84 83 82 82 81 80 80 78 77 76 75 75 74
38 37 37 36 36 36 36 35 34 33 33 34 35 36 36 37 39 41 42 43 45 47 47 48 49 51 53 54 56 57 57 58 59 61 63 65 68 70 72 73 76 77 79 81 83 84 85 87 88 89 89 90 90 91 92 93 93 94 95 95 95 96 96 96 96 95 95 95 94 94 93 93 92 92 91 90 90 89 89 88 88 87 86 85 85 84 84 83 82 82 81 79 78 77 76 76 75
40 40 39 37 37 37 37 36 35 34 33 33 34 34 34 35 37 38 39 39 41 43 44 46 47 48 50 52 53 55 55 56 56 57 58 60 63 65 67 69 71 74 76 77 79 81 83 84 86 87 87 88 88 89 90 90 91 92 92 93 94 95 95 96 95 95 95 94 94 94 93 93 92 92 92 91 91 90 89 89 88 87 87 86 85 85 85 84 83 82 81 80 78 78 77 76 75
41 41 40 39 39 39 39 38 37 35 34 33 34 34 34 34 35 36 37 37 38 39 41 43 45 46 48 50 51 52 53 54 55 56 57 58 60 62 64 65 67 70 72 74 76 78 80 82 84 85 86 86 87 87 88 89 89 89 90 91 91 92 93 94 94 94 94 94 94 93 93 92 92 92 91 91 91 90 90 89 88 88 87 86 86 86 86 84 84 83 81 80 79 78 77 77 76
43 43 42 41 41 42 41 40 38 37 35 34 33 33 34 34 34 35 36 36 36 37 39 41 42 44 46 48 49 50 51 53 54 55 56 56 57 59 60 62 63 66 68 69 72 74 76 79 81 83 84 85 85 86 87 88 89 89 88 88 89 90 91 92 92 93 93 93 93 92 92 91 91 91 91 91 90 90 90 89 88 88 87 87 87 87 86 85 84 83 82 81 80 79 78 77 76
44 44 44 44 44 44 44 43 40 38 36 34 33 33 33 34 34 33 33 35 36 36 37 39 40 42 44 45 46 47 49 50 51 53 53 54 55 56 58 59 60 62 64 65 67 69 71 74 76 79 81 83 83 84 85 86 88 89 88 87 87 88 89 90 90 91 91 91 91 91 91 90 90 91 91 90 90 89 89 89 88 87 87 87 87 87 87 86 85 84 83 82 80 79 79 78 77
46 46 47 47 48 47 46 46 44 40 37 35 33 32 32 33 33 33 33 33 34 35 35 37 38 39 41 43 44 45 46 47 48 49 50 51 52 53 55 56 58 59 61 62 64 65 66 69 71 74 77 79 80 81 83 84 85 87 88 88 87 87 88 89 90 90 90 90 90 90 90 90 90 90 90 90 89 89 89 89 89 88 87 87 87 87 87 86 85 85 84 83 81 80 79 79 78
49 49 50 51 52 52 50 49 48 44 38 36 35 33 32 32 33 33 33 32 33 34 35 36 37 38 39 40 41 42 43 44 45 46 47 48 49 50 52 54 56 57 59 60 62 63 64 65 67 69 72 75 77 78 79 81 83 84 86 87 87 86 86 87 88 89 90 90 89 89 89 90 90 90 90 90 89 89 89 89 89 88 87 88 88 88 88 87 86 85 84 83 82 81 80 80 79
53 53 53 54 55 56 55 53 53 49 41 37 36 34 33 32 32 32 31 31 31 32 34 35 36 37 38 39 39 40 41 42 43 44 45 47 48 50 51 54 55 56 58 59 60 62 63 63 64 66 68 71 73 74 75 76 78 81 83 84 86 86 86 86 86 87 89 89 89 88 89 89 89 89 89 89 89 89 89 89 89 89 89 89 89 89 89 88 87 86 85 84 83 82 82 81 81
55 56 57 57 59 60 60 58 57 53 45 39 37 36 35 33 31 30 30 30 30 31 32 33 34 36 37 38 38 38 39 40 41 42 44 46 47 49 51 54 55 56 57 58 59 60 61 62 62 63 65 67 69 71 72 73 74 76 78 81 83 85 86 86 86 86 87 87 87 87 88 88 88 88 89 89 89 89 89 90 90 89 89 90 90 90 89 88 87 87 86 85 84 83 83 83 82
55 58 59 59 60 63 64 63 61 57 49 42 39 39 39 37 34 31 30 29 29 30 30 31 32 33 34 34 35 35 36 36 37 39 40 42 44 46 50 53 55 56 56 56 56 57 58 60 60 61 62 63 65 68 69 70 71 72 74 76 78 81 83 84 85 85 86 86 85 86 87 87 88 88 88 88 88 88 89 89 90 90 90 90 91 90 90 89 88 87 87 86 85 85 84 84 84
55 58 58 59 60 63 66 66 64 60 53 46 43 42 42 41 38 35 32 30 29 30 30 30 30 31 30 30 31 31 32 32 33 34 35 37 39 42 45 49 52 54 56 56 55 55 55 56 57 58 59 61 62 63 66 67 69 69 71 72 74 76 78 81 83 84 84 84 83 84 85 86 87 87 88 88 88 88 88 88 89 90 90 90 90 90 90 89 88 88 87 87 86 86 85 85 85
54 57 58 59 61 63 66 67 66 62 56 51 47 46 45 45 43 40 37 35 32 30 30 31 31 30 29 28 28 28 29 29 30 32 33 34 36 37 39 42 45 49 53 55 57 56 55 54 54 55 56 58 59 60 61 63 66 67 68 69 71 72 74 76 78 81 82 82 82 81 82 84 85 86 87 88 87 87 87 87 88 89 89 90 90 90 90 89 89 88 88 88 87 86 86 86 86
53 56 57 60 62 64 66 67 67 64 59 55 52 50 49 48 47 44 42 40 38 35 33 33 33 31 29 28 27 27 27 28 28 30 31 32 33 35 37 39 41 43 46 50 54 56 56 55 54 53 53 54 56 57 58 59 61 64 65 67 68 69 71 72 74 76 78 79 79 79 79 80 82 84 86 87 87 87 87 86 86 87 88 88 89 89 89 89 89 89 89 88 88 87 87 87 87
51 55 57 60 62 63 65 66 67 64 61 59 57 55 53 52 51 48 45 44 43 42 39 37 37 35 31 29 30 29 28 28 28 29 30 31 32 34 36 38 40 41 43 46 49 51 53 54 54 53 52 52 53 54 55 56 57 59 61 64 66 67 68 69 70 71 73 75 76 77 77 78 79 81 83 84 86 87 87 86 86 86 86 87 87 87 88 88 88 89 89 89 88 87 87 87 87
51 53 56 59 61 62 64 65 65 64 62 61 61 59 57 56 55 52 49 48 46 46 45 43 41 38 35 34 34 33 30 29 29 29 30 31 32 34 35 37 38 39 40 42 44 46 49 50 51 52 52 52 52 52 53 54 54 55 57 59 62 65 66 67 67 68 69 70 71 73 74 75 76 77 79 81 83 85 86 86 86 85 85 85 86 86 86 86 87 88 88 89 89 88 87 87 87
51 53 55 57 59 61 62 63 64 63 61 61 62 62 60 59 58 57 54 51 50 48 47 47 45 41 40 41 40 39 36 33 32 32 32 33 33 34 35 36 37 37 38 38 39 41 44 46 47 48 50 51 52 52 52 52 53 53 54 55 57 60 63 64 66 66 66 66 67 68 70 72 73 73 74 76 79 81 84 85 86 85 84 85 85 85 85 84 84 85 87 88 88 88 87 86 86
52 52 54 56 57 59 61 63 63 62 61 60 62 63 62 61 60 59 58 55 53 52 50 50 49 46 46 47 45 45 42 38 36 35 35 36 36 37 38 38 38 37 36 36 37 38 40 41 43 44 46 47 49 50 51 52 52 52 52 53 53 55 58 60 62 64 64 64 64 64 64 66 68 70 71 72 74 76 79 82 84 84 84 84 85 85 84 83 83 83 84 86 86 87 87 86 86
53 52 53 55 56 58 60 62 63 62 61 60 60 63 64 63 62 61 60 58 56 55 53 53 54 51 51 52 51 50 48 45 42 41 40 40 41 41 41 41 40 39 38 37 37 37 37 38 39 40 41 42 44 46 48 50 51 51 51 51 51 52 53 55 57 59 61 61 62 62 60 62 66 68 69 70 71 72 74 77 80 83 83 84 84 84 85 84 82 82 82 83 84 85 85 85 86
55 53 53 55 56 57 58 60 62 62 61 60 59 61 64 65 64 62 60 59 57 57 56 56 58 56 55 55 54 53 52 50 48 46 45 45 45 44 44 45 45 45 43 41 38 36 35 35 35 36 37 38 39 41 43 46 49 50 50 50 50 50 51 52 53 54 56 57 57 57 57 59 64 66 67 69 71 71 71 73 75 79 82 83 83 84 84 84 83 82 81 82 82 83 83 83 84
57 55 54 56 57 57 58 59 61 62 61 60 58 60 63 65 65 64 61 59 58 58 57 58 61 60 59 58 57 55 54 53 51 50 49 48 47 47 47 48 48 48 45 40 35 32 31 30 30 30 31 32 34 36 38 41 44 46 48 49 49 49 50 50 50 51 52 53 54 53 53 54 58 63 66 66 67 69 70 71 72 75 78 80 82 83 83 83 83 82 81 81 81 81 81 81 82
58 57 55 56 58 57 57 58 60 61 59 59 58 58 62 64 65 64 62 60 58 59 58 58 62 63 61 59 57 55 54 53 51 51 50 48 47 47 47 47 47 44 38 33 30 29 29 28 28 27 27 27 28 30 32 35 38 41 44 46 47 48 48 49 49 49 49 49 50 50 50 50 52 58 60 59 61 63 65 68 70 72 74 77 80 82 83 83 82 82 81 81 80 80 80 80 81
59 58 56 57 58 57 56 58 60 60 59 58 57 58 62 63 63 63 62 60 58 59 59 58 61 63 61 59 57 54 52 51 50 50 48 47 47 47 47 46 44 39 34 31 32 33 34 33 32 30 29 29 29 29 29 31 33 36 39 42 44 45 46 47 48 48 48 48 48 48 48 48 48 52 54 54 56 58 60 63 65 68 71 74 76 79 81 82 82 82 81 81 80 79 79 79 80
60 58 58 59 59 56 56 57 59 60 58 58 57 58 62 62 61 61 60 59 58 58 59 57 59 61 60 57 55 52 51 49 49 48 48 48 47 48 48 47 45 42 39 39 40 41 42 42 41 39 38 38 37 36 34 32 31 31 33 36 39 41 43 44 45 46 47 48 48 47 47 47 47 48 50 51 52 54 56 58 60 63 66 70 72 75 78 80 81 82 82 81 81 80 79 79 80
61 58 59 62 59 56 57 58 59 59 57 57 56 57 60 61 59 59 58 58 57 58 58 56 57 58 57 54 52 50 50 49 47 47 48 48 48 48 47 46 45 44 43 43 44 45 47 48 48 48 48 48 47 45 42 39 35 32 31 31 33 35 38 40 41 43 45 47 48 48 48 47 47 47 47 48 49 50 52 55 58 60 62 66 68 71 74 77 79 81 82 82 81 81 80 79 80
63 60 62 64 60 56 57 58 59 59 57 55 55 56 59 60 58 57 58 57 56 57 58 55 54 55 53 52 50 48 48 49 47 45 45 45 45 44 42 41 40 39 39 41 42 44 46 47 49 50 52 53 53 52 50 48 44 40 35 32 30 30 32 34 36 38 41 43 46 48 48 48 48 48 48 48 49 49 50 52 54 57 59 62 65 68 71 74 76 78 80 81 81 81 81 80 80
64 61 64 66 61 56 56 58 59 58 56 55 54 54 58 60 57 56 57 55 55 56 56 55 52 50 49 49 49 47 47 48 46 43 41 41 41 40 38 37 36 35 35 36 38 40 42 44 46 48 49 52 54 55 55 54 52 49 45 40 36 33 32 31 32 33 35 37 40 43 46 48 48 49 49 49 49 50 50 51 52 54 56 59 62 65 68 71 74 76 78 79 80 81 81 81 81
64 63 66 68 62 56 56 58 59 59 57 54 52 52 56 60 57 55 56 54 54 55 55 54 51 48 46 46 47 47 46 45 43 41 39 38 38 38 37 36 35 34 33 33 35 36 39 41 43 45 46 48 50 52 55 56 56 55 53 50 46 42 39 36 35 34 34 34 35 37 40 43 46 47 48 49 50 51 51 51 52 53 54 56 59 62 65 69 72 74 76 77 79 80 81 81 82
64 64 67 69 64 57 57 59 59 59 56 53 51 50 53 60 57 54 55 53 52 54 54 53 51 47 44 44 44 44 44 42 40 39 38 36 36 35 34 34 33 33 33 33 33 34 35 37 40 42 44 46 47 48 50 53 55 56 56 55 53 50 48 45 43 41 40 38 37 36 36 37 40 43 46 48 49 51 52 52 53 53 54 55 57 59 61 65 69 72 74 76 77 79 80 80 81
63 65 67 70 66 60 59 60 60 59 54 51 52 50 49 56 58 54 53 53 52 52 52 53 51 46 43 42 40 41 41 40 40 38 37 36 35 35 34 34 34 33 33 33 33 33 34 35 36 38 41 42 44 45 46 48 50 52 54 55 55 55 54 53 51 49 47 45 44 42 41 39 38 39 41 44 47 49 51 53 54 55 55 56 57 58 59 62 65 69 72 74 76 78 79 80 81
63 66 68 70 68 64 63 64 63 59 51 50 53 52 48 51 57 55 51 53 53 51 50 52 52 46 41 39 36 37 37 39 41 39 38 37 36 37 37 36 35 35 35 34 34 34 34 34 35 36 37 39 41 43 44 45 46 47 49 52 54 55 55 55 55 54 53 51 50 48 47 45 43 41 40 41 43 46 48 51 53 55 56 57 58 59 60 61 63 65 68 71 74 77 79 80 81
64 67 69 70 69 66 68 70 67 58 49 50 54 53 48 48 55 56 52 54 52 49 49 51 52 46 40 37 34 34 34 36 40 40 38 38 37 38 38 37 37 36 36 36 36 36 35 35 35 35 35 36 38 40 42 44 44 45 46 47 49 51 53 55 56 56 56 55 54 53 51 50 49 47 45 43 42 43 45 47 50 53 55 57 59 60 61 62 63 65 66 68 71 74 77 79 81
66 68 70 71 70 67 72 76 69 57 48 48 52 53 50 47 53 57 54 53 51 49 50 51 51 46 38 34 31 31 32 34 39 39 38 38 38 38 38 37 37 37 36 36 37 37 37 37 36 36 35 35 36 38 40 42 44 45 45 45 46 48 49 51 54 55 56 57 56 56 55 54 53 52 51 49 47 46 45 45 47 50 53 55 58 60 62 64 65 66 67 68 70 72 74 77 80
69 70 71 72 70 69 75 78 72 60 49 47 50 52 52 48 52 59 55 51 50 48 50 51 51 45 37 32 29 28 31 35 39 40 41 40 39 39 38 37 36 36 36 36 37 38 38 38 38 37 36 35 36 37 39 41 44 46 46 46 46 47 48 49 50 52 54 56 57 57 57 57 56 55 54 53 52 51 50 48 48 48 50 52 55 58 61 63 65 67 69 70 71 72 73 75 78
72 71 72 73 70 71 76 79 76 68 54 48 48 51 52 50 52 57 55 51 50 48 50 53 50 42 35 29 26 27 31 36 41 43 44 44 42 40 39 38 37 37 37 37 37 38 38 39 39 39 38 37 36 36 37 39 43 47 48 48 48 48 49 48 49 50 51 54 55 56 57 57 57 57 56 55 55 54 54 53 52 51 51 52 53 55 58 61 64 67 69 70 72 73 74 75 77
74 72 73 73 71 73 78 80 80 74 61 50 47 49 50 50 51 54 55 54 50 47 50 54 50 40 32 25 23 26 31 36 39 42 44 44 43 41 39 39 38 38 38 38 38 38 38 39 39 40 40 40 39 37 37 38 40 45 49 51 51 50 51 50 50 50 50 52 53 55 56 57 57 58 57 57 56 56 56 56 56 55 55 55 55 55 56 58 61 64 67 69 71 73 75 76 77
74 73 74 73 73 75 79 82 80 77 68 54 46 46 47 48 50 53 55 54 49 47 50 53 50 40 31 24 24 28 32 36 39 40 42 42 43 42 40 39 39 38 39 39 38 38 39 40 40 41 41 41 41 41 40 39 40 42 47 51 53 53 53 53 53 52 52 52 52 53 55 55 56 57 57 57 57 57 57 57 58 58 58 58 59 59 59 60 61 62 65 67 70 72 74 76 78
74 75 75 74 75 77 80 83 82 77 70 56 45 44 44 46 49 52 55 54 50 50 50 53 51 40 30 26 27 30 32 35 37 39 40 41 41 41 40 39 38 38 38 39 39 39 39 40 40 42 43 43 44 45 44 43 42 42 45 50 53 54 55 55 55 55 54 54 54 54 54 55 55 56 57 57 57 58 58 58 59 59 60 60 61 62 63 63 64 64 65 66 68 71 73 75 77
76 77 77 76 77 80 82 84 84 77 69 56 45 42 42 46 49 51 55 54 53 51 50 54 51 37 27 26 27 29 31 31 34 35 36 38 38 39 39 39 39 38 38 38 38 39 40 40 41 42 44 45 46 47 48 48 47 45 45 48 52 55 56 57 57 57 56 56 56 55 55 55 56 56 57 57 58 58 58 59 60 60 61 62 63 64 65 66 67 67 68 68 69 70 71 74 76
79 79 79 78 78 81 83 86 86 78 69 61 48 40 42 46 49 51 53 52 53 54 51 55 51 34 25 27 28 29 30 30 31 31 32 34 35 35 35 36 37 37 37 38 38 39 40 41 41 42 43 46 47 48 50 51 52 51 49 49 52 55 57 58 59 59 57 57 56 56 56 56 57 57 58 58 59 60 60 60 61 61 62 63 64 65 66 67 68 69 71 71 72 72 72 72 74
81 81 80 80 80 83 85 87 88 78 71 71 57 41 40 45 47 51 53 52 55 56 54 59 55 37 27 30 31 30 32 32 31 30 30 32 32 33 34 34 36 36 37 38 39 40 41 42 42 43 44 46 47 49 50 53 55 55 54 52 53 57 59 61 62 61 59 57 56 56 56 57 57 58 59 60 60 61 62 62 62 63 63 64 65 66 67 69 70 71 72 73 74 75 74 74 74
82 81 80 80 81 84 87 89 88 79 74 79 66 42 38 42 46 50 53 53 56 57 57 61 59 44 34 35 36 35 37 36 33 32 32 31 32 32 33 34 36 38 39 40 41 41 42 43 44 45 46 47 48 49 51 53 56 58 58 56 56 58 61 63 64 64 62 59 58 57 57 57 57 58 59 61 62 63 64 64 64 65 65 65 66 67 68 69 71 72 74 75 75 76 76 76 76
83 82 80 80 82 86 89 91 89 80 79 84 70 44 35 39 43 46 50 53 54 54 55 56 55 50 44 42 42 41 42 40 37 37 37 36 35 34 34 35 37 39 41 42 44 44 45 46 46 47 48 49 49 49 51 53 56 58 59 59 58 59 63 65 67 67 65 62 60 58 58 58 58 58 60 61 62 63 64 65 66 66 67 67 68 68 69 70 72 73 75 76 76 77 77 77 77
82 82 81 81 84 87 90 93 90 84 85 87 72 44 30 33 38 40 45 49 49 50 53 53 54 56 52 48 49 49 48 44 42 43 43 42 41 39 39 39 40 42 43 44 45 46 47 48 48 49 50 50 50 49 50 52 55 58 59 60 60 60 63 67 69 69 67 65 63 61 61 60 59 58 58 60 61 63 64 65 66 67 67 68 68 69 70 71 72 73 75 77 77 77 77 77 77
81 82 82 83 86 88 90 93 90 88 90 87 72 45 24 27 35 37 42 50 52 54 57 56 57 61 57 52 55 56 52 48 48 49 48 46 45 44 43 45 46 46 46 47 47 48 49 50 50 51 51 52 51 50 51 53 56 58 60 61 61 61 63 66 69 70 69 67 65 64 64 64 62 60 58 58 60 61 63 64 65 66 67 68 69 69 70 71 72 73 74 76 77 78 77 77 77
Wind_Direction
265 263 262 261 260 260 259 258 257 257 256 256 256 255 255 254 254 254 254 255 255 255 256 256 256 257 257 257 257 257 258 258 258 259 259 259 260 259 260 260 260 260 261 261 262 262 263 263 263 263 264 264 264 265 265 265 265 266 266 266 266 267 267 267 267 267 268 268 269 269 269 270 270 271 271 272 272 273 273 274 274 274 275 276 276 275 274 274 274 274 274 275 275 274 274 274 274
268 267 265 264 262 261 260 259 258 257 257 256 256 256 256 255 255 254 254 254 255 256 256 257 257 257 257 257 257 257 258 258 258 259 260 260 260 260 260 260 261 261 261 261 262 262 262 263 263 263 264 264 264 265 265 265 265 265 266 266 266 267 267 267 267 268 268 268 269 269 270 270 270 271 271 271 272 272 273 273 274 274 274 275 276 275 275 275 274 275 275 275 275 275 275 275 275
270 269 268 266 265 263 262 261 259 258 257 257 256 256 256 256 256 255 255 255 255 255 256 256 257 257 257 257 257 257 258 258 259 259 260 260 261 261 261 261 261 261 261 262 262 262 262 263 263 263 264 264 264 265 265 265 266 266 266 266 266 266 267 267 268 268 268 268 269 269 270 270 270 271 271 271 272 272 272 272 273 274 274 274 274 275 276 276 275 275 275 275 276 276 276 276 276
272 271 269 268 267 266 265 263 262 261 260 259 258 258 257 257 257 257 257 256 256 256 256 256 256 256 257 257 257 257 258 258 259 260 260 261 261 261 261 261 261 261 261 261 261 262 262 263 263 263 264 264 264 265 265 266 266 266 266 266 266 266 267 267 267 268 268 269 269 269 270 270 270 271 271 272 272 272 272 272 272 273 273 274 274 274 275 275 275 276 276 276 276 276 276 276 276
276 274 272 271 270 269 268 267 266 265 264 262 261 261 260 260 260 259 259 259 258 258 257 257 256 256 256 257 257 257 258 258 259 260 260 260 261 261 261 261 261 261 261 261 262 262 262 262 263 264 264 265 265 265 265 266 266 266 266 267 267 267 267 267 267 268 268 269 269 270 270 270 270 271 271 271 272 272 272 272 273 273 273 273 273 274 274 274 275 275 275 275 275 275 275 275 275
281 279 277 275 274 272 271 270 269 268 267 266 265 264 263 263 263 262 262 261 260 260 259 258 258 258 258 258 257 258 258 258 259 259 260 260 260 261 261 261 261 261 262 262 262 262 262 262 263 263 264 264 265 265 266 266 266 266 266 267 267 267 267 267 267 267 268 268 269 269 270 270 270 271 271 271 271 272 272 273 273 273 273 273 273 273 273 273 274 274 274 274 274 274 275 275 274
291 288 285 283 281 278 276 275 273 272 270 269 268 267 266 265 264 264 263 263 262 261 261 260 260 259 259 259 258 258 258 259 259 259 259 259 260 260 260 261 261 261 262 262 262 262 262 263 262 262 263 263 264 264 265 265 266 266 267 267 267 267 267 267 267 267 267 268 268 269 269 270 270 270 271 271 271 272 272 272 272 273 273 273 272 273 273 273 273 273 273 273 273 273 274 274 274
299 295 292 290 288 286 284 281 280 278 276 274 273 271 269 267 266 265 264 264 264 263 263 262 262 261 260 260 260 259 259 259 259 259 259 259 259 259 260 260 261 261 261 261 262 262 262 262 262 263 263 263 263 264 264 265 265 266 266 267 267 267 268 268 268 268 268 268 268 268 269 269 270 270 270 271 271 271 272 272 272 272 272 272 272 272 272 273 273 272 272 273 273 272 272 272 272
306 303 300 297 295 292 290 288 286 285 283 281 278 276 274 272 270 268 267 266 265 264 264 263 263 262 262 261 260 260 260 259 259 259 259 260 260 260 260 260 260 261 261 261 261 261 262 262 262 263 263 263 263 264 264 264 265 265 266 266 267 267 267 268 268 268 268 268 268 268 268 269 269 270 270 271 271 271 271 272 272 272 272 272 273 273 273 273 273 273 272 272 272 272 272 272 271
315 312 309 305 302 299 296 294 292 290 288 287 284 282 279 277 274 272 271 269 268 267 265 265 264 263 263 262 261 261 260 260 260 260 260 260 260 261 261 261 261 261 262 262 262 262 262 262 263 263 263 264 264 264 264 264 264 264 265 266 266 267 267 267 267 268 268 268 268 268 268 268 269 269 269 270 270 271 271 271 272 272 272 272 273 273 273 273 273 273 273 273 272 273 272 272 271
319 317 315 312 310 306 303 299 296 293 291 290 289 288 286 283 280 277 275 273 271 269 268 266 266 265 264 264 263 262 261 261 261 261 261 261 261 261 262 262 262 262 262 262 262 262 262 263 263 263 264 264 264 264 265 265 265 264 265 265 265 266 266 267 267 267 267 267 267 267 268 268 268 268 269 269 270 270 271 271 271 272 272 272 273 273 273 274 274 274 273 273 273 273 273 273 272
324 322 320 318 316 313 309 305 299 294 291 289 289 288 288 287 285 283 280 277 274 272 271 270 268 268 267 266 265 264 263 263 262 262 262 262 262 262 262 262 263 263 263 263 263 263 263 263 263 263 263 264 264 264 265 265 265 265 265 265 265 265 265 266 266 267 267 267 267 267 267 267 267 268 268 269 269 269 270 270 271 271 272 272 273 273 273 273 274 274 274 274 274 274 274 274 274
332 328 325 323 322 319 316 312 306 299 294 290 288 287 287 288 288 287 285 283 280 277 275 274 272 272 271 270 269 268 266 265 265 264 264 263 263 262 262 262 263 263 263 263 263 263 264 264 263 263 263 263 264 264 265 265 265 266 266 266 266 266 266 266 266 266 266 267 267 267 267 267 267 267 267 268 268 269 269 270 270 271 271 272 272 272 273 273 273 273 274 274 274 275 275 275 275
337 334 332 331 330 328 324 319 313 307 301 296 292 290 289 288 288 287 287 286 285 283 280 278 277 276 276 275 274 272 271 270 268 268 267 266 265 265 264 263 263 263 263 263 263 264 264 264 264 264 263 263 263 263 264 265 265 266 266 266 266 266 267 267 266 266 266 266 267 267 267 268 268 267 267 267 268 268 268 269 269 270 270 271 271 272 272 272 273 273 273 274 274 275 275 276 276
341 340 338 337 336 334 331 326 321 315 309 303 299 296 293 291 289 288 287 287 286 285 283 281 280 279 278 278 278 277 276 275 274 273 271 270 269 268 267 266 265 264 264 264 264 264 264 264 264 264 264 264 264 264 264 264 264 265 266 266 266 267 267 267 267 267 267 267 267 267 267 267 268 268 268 268 268 268 268 268 269 269 270 270 271 271 271 272 272 272 273 274 274 275 275 275 276
343 343 342 341 340 338 335 333 329 324 317 310 305 301 298 295 292 290 288 287 285 283 282 281 280 279 279 278 278 278 278 277 276 275 274 273 271 270 269 268 266 266 265 264 264 264 264 264 264 264 264 264 264 264 264 264 263 263 264 265 265 266 266 267 267 267 267 267 267 267 267 267 267 267 267 268 268 268 268 268 268 269 269 270 270 270 270 271 271 272 272 273 273 274 274 275 275
343 343 343 343 342 341 339 337 335 333 327 318 311 308 305 302 299 295 293 290 287 284 282 280 279 278 278 277 277 278 278 277 277 276 274 273 273 272 271 270 269 267 266 265 265 264 264 264 264 264 263 263 263 264 264 264 263 263 263 263 263 264 265 265 266 267 267 267 267 267 267 267 267 267 267 267 267 267 268 268 268 268 269 269 269 270 270 270 271 271 272 272 272 273 273 274 274
344 343 343 343 343 343 342 340 338 338 336 327 318 313 311 308 306 303 301 298 295 291 287 284 282 281 280 279 278 278 278 278 277 277 276 275 274 274 273 272 271 270 269 268 266 266 265 264 264 264 263 263 263 263 263 263 263 263 262 262 263 263 263 263 264 265 265 266 266 266 267 267 267 267 267 266 267 267 267 267 267 268 268 268 269 269 269 270 270 270 271 271 271 272 272 273 273
345 344 344 344 344 343 344 343 340 338 339 335 325 316 313 311 310 308 307 305 301 298 294 290 288 285 284 283 283 282 281 281 281 281 280 279 278 277 276 275 273 272 271 269 268 267 266 266 265 265 264 263 263 262 262 262 263 263 263 262 261 262 263 263 263 263 264 264 265 265 266 266 266 266 266 266 266 266 266 267 267 267 267 268 268 268 269 269 269 269 270 270 270 271 271 271 272
346 345 345 345 345 344 344 344 341 338 339 341 334 324 318 316 315 313 311 309 306 302 298 294 291 288 286 285 284 284 283 283 283 283 282 282 281 280 279 278 276 274 273 271 270 268 267 266 266 266 265 265 264 263 262 262 262 262 263 262 261 260 261 262 262 262 262 263 263 264 264 264 265 265 265 265 266 266 266 266 266 266 267 267 267 267 268 268 268 269 269 269 270 270 270 270 270
348 347 346 346 346 345 345 345 343 339 338 342 342 335 326 322 320 318 316 315 312 308 304 299 296 292 289 287 285 284 284 283 282 282 282 281 280 279 278 277 276 275 274 273 272 271 269 268 267 267 266 266 265 264 263 263 262 262 262 262 262 261 260 260 261 261 262 262 262 262 263 263 263 263 264 264 265 265 265 265 266 266 266 266 266 266 267 267 267 268 268 268 268 269 269 269 269
349 348 347 347 347 346 345 346 346 342 339 340 344 342 335 328 324 321 319 317 315 312 308 304 301 298 295 293 290 288 286 285 283 281 280 279 278 276 275 275 274 273 273 273 273 273 272 271 270 269 268 268 267 265 264 262 262 262 262 262 262 262 261 260 259 259 260 261 261 261 261 262 262 263 263 263 264 264 264 264 264 264 264 264 264 265 265 266 266 267 267 267 267 267 268 268 268
349 349 349 349 349 348 347 347 347 344 340 340 342 345 341 334 329 324 320 317 315 314 311 308 304 302 300 298 296 294 291 289 286 284 282 281 280 278 277 276 275 274 273 273 273 273 273 272 272 271 270 270 270 269 267 264 262 261 262 262 262 262 262 261 260 259 259 260 260 261 261 261 261 261 262 262 262 263 263 263 263 263 263 263 264 264 264 264 265 265 266 266 266 266 266 266 267
350 350 351 352 352 351 349 348 348 345 342 341 342 345 343 338 333 329 323 319 316 314 312 310 307 304 301 298 297 295 293 292 290 288 286 286 286 286 285 284 282 280 278 276 275 274 273 273 272 272 271 271 271 271 270 268 266 263 262 261 261 261 261 261 261 260 259 259 259 260 260 260 260 260 260 260 260 261 261 262 262 262 262 262 263 263 263 264 264 264 265 265 265 265 265 265 265
351 351 352 353 354 353 351 348 349 346 343 342 342 343 343 339 336 332 328 324 319 316 314 313 311 307 302 298 295 293 291 290 289 288 287 287 288 289 290 291 291 289 287 285 281 278 276 275 274 272 271 271 271 271 271 271 269 267 265 263 262 261 261 261 261 261 260 259 259 259 259 260 260 260 260 260 259 259 260 260 261 261 261 262 262 262 263 263 263 263 263 264 264 264 264 264 265
352 352 352 353 354 354 352 349 348 347 343 342 342 342 341 339 337 334 331 328 325 321 319 318 316 313 309 304 298 294 291 289 287 287 286 287 288 289 289 290 291 292 292 291 289 286 283 279 277 275 273 271 270 270 270 271 271 270 268 265 264 262 261 261 261 261 261 261 260 259 258 259 260 260 260 260 260 259 259 259 259 260 261 261 262 262 262 263 263 263 263 263 263 263 263 264 264
352 352 352 353 354 354 353 350 348 347 343 342 343 341 340 339 337 335 333 331 330 327 326 325 323 320 318 314 309 304 299 295 291 290 290 290 290 288 287 286 287 288 289 291 291 291 289 287 283 280 276 274 272 270 269 269 270 271 270 269 266 264 263 262 261 261 262 262 261 260 259 258 259 259 260 260 260 260 259 258 258 259 260 261 261 261 262 262 262 262 262 262 262 262 262 263 263
351 351 351 352 354 353 353 351 349 348 344 342 342 341 339 339 337 335 334 333 333 331 330 330 328 326 325 324 320 315 310 307 303 300 297 294 292 290 288 289 289 289 290 291 292 292 293 292 290 287 283 279 276 273 271 269 268 269 270 270 269 267 265 264 262 261 261 261 261 261 260 259 258 258 259 260 260 260 260 259 258 257 258 259 260 260 261 261 262 262 262 262 262 262 262 262 262
352 349 350 351 352 351 351 351 350 348 345 342 341 340 338 338 337 336 335 334 334 333 332 332 330 329 330 330 327 323 320 318 316 312 307 302 299 297 295 295 295 295 295 295 295 294 294 294 293 292 290 286 283 279 276 273 271 269 268 269 270 269 268 267 265 263 262 261 261 261 261 261 259 259 259 259 260 260 260 260 259 258 257 257 258 258 259 260 261 261 262 262 262 262 261 261 262
352 349 349 349 349 349 349 350 350 348 346 343 340 338 337 337 337 336 335 334 334 333 333 333 329 329 333 333 331 330 328 326 325 321 318 315 311 308 305 304 302 301 299 297 295 295 294 294 294 294 293 291 289 286 283 280 276 273 270 269 269 269 269 269 269 267 265 263 261 260 261 262 262 261 260 259 259 259 260 260 260 259 258 257 257 257 257 258 259 259 260 261 262 262 261 261 261
353 348 347 348 347 347 347 347 349 348 346 343 340 337 335 335 335 335 335 333 332 332 334 333 328 329 334 334 333 333 332 331 330 329 327 326 323 320 316 313 309 306 302 299 296 294 293 293 294 294 294 293 292 290 288 286 283 279 275 272 270 269 270 270 270 270 269 267 265 263 262 262 262 261 260 259 259 259 259 260 260 260 259 257 257 257 257 256 257 258 259 260 260 261 261 261 261
352 349 346 346 346 345 345 345 346 347 345 342 340 336 334 333 333 334 334 332 331 331 333 333 329 330 334 333 334 334 333 333 334 334 334 333 330 326 323 320 317 313 310 306 301 297 295 294 294 294 294 294 293 292 291 289 287 285 282 278 274 272 270 270 270 271 271 270 269 267 265 263 261 260 259 258 258 257 258 259 259 260 259 258 257 257 256 256 256 256 257 258 259 259 260 261 261
351 349 345 345 346 345 344 343 344 346 343 341 339 335 332 331 331 332 333 331 329 329 331 332 329 330 333 333 332 332 333 334 335 336 336 334 332 330 328 326 323 320 317 314 310 305 302 299 298 297 297 297 296 294 293 291 290 289 287 284 281 277 274 272 271 271 271 272 271 270 268 266 265 263 260 258 257 256 256 256 257 258 259 258 258 257 256 256 255 255 255 256 257 258 258 259 260
350 349 345 345 345 345 343 341 342 344 342 340 338 334 330 329 329 330 332 331 328 327 330 331 329 329 331 331 330 331 332 333 335 335 335 334 333 332 331 328 325 321 318 316 315 314 313 311 309 308 306 304 302 300 297 295 293 292 291 289 287 284 281 278 275 273 272 272 272 272 270 268 269 267 265 263 262 260 258 256 256 257 257 258 258 258 256 255 255 254 255 255 256 257 257 257 258
349 347 345 345 345 344 343 340 340 341 341 338 337 333 329 327 328 329 331 331 327 326 328 330 328 328 330 329 328 329 330 331 333 333 334 334 332 330 328 326 323 320 316 315 318 323 326 325 323 320 318 315 313 311 307 302 299 297 295 294 292 290 288 285 282 279 276 274 273 273 272 270 269 269 269 268 266 265 262 260 258 256 256 257 257 258 257 256 255 254 254 254 254 255 256 256 256
347 346 345 346 346 343 342 340 339 340 339 337 336 334 329 327 327 327 330 330 327 324 326 329 328 327 328 327 326 327 329 330 331 331 331 330 328 326 325 326 326 325 324 326 329 332 333 332 330 327 325 324 324 324 321 315 308 304 301 298 296 294 293 291 289 286 283 280 277 275 274 273 271 271 272 270 267 265 264 262 260 258 257 256 256 257 257 257 256 255 254 253 253 253 254 254 255
346 345 344 345 346 343 340 339 338 338 338 336 336 335 329 327 327 326 328 329 325 322 324 328 328 327 326 325 325 326 327 328 328 328 327 326 326 326 328 331 334 336 337 338 337 336 336 335 334 332 331 330 329 329 329 327 320 312 307 303 300 297 296 294 293 291 289 287 284 280 278 277 275 275 275 274 271 268 265 264 262 260 258 257 256 256 257 257 257 256 255 254 253 253 252 252 253
345 344 343 344 346 342 338 338 336 336 337 336 336 335 329 326 326 325 327 327 324 321 323 327 328 326 325 323 323 324 325 325 326 326 325 326 327 329 333 336 339 340 341 341 339 338 337 336 335 334 333 332 331 330 330 330 328 322 315 308 303 300 298 296 295 294 293 292 290 288 285 282 279 278 278 277 275 272 269 266 264 261 260 258 256 256 256 257 256 256 255 255 254 253 253 252 252
344 344 343 343 344 341 337 336 335 335 336 335 336 335 328 324 325 324 325 325 322 320 321 325 327 326 324 321 321 323 322 323 325 326 326 326 328 331 334 337 338 340 340 339 338 337 336 336 335 334 333 331 330 330 329 329 329 327 322 316 310 305 301 298 297 295 294 294 293 292 291 288 285 283 281 279 278 276 273 270 267 265 262 260 257 256 256 256 256 256 256 255 254 254 253 252 252
343 343 343 343 342 340 336 334 334 333 335 335 334 334 327 322 323 322 322 323 320 318 320 323 324 324 323 319 319 321 320 321 323 324 325 325 326 327 328 329 332 334 336 336 336 335 334 333 333 332 331 330 329 329 328 328 328 327 326 322 318 312 307 303 300 298 297 296 294 293 293 291 290 287 285 282 280 278 276 274 271 268 265 262 260 257 256 256 256 256 256 256 255 254 253 253 252
341 341 343 344 342 339 335 333 333 333 335 334 332 333 327 321 321 319 319 321 318 316 318 320 320 322 322 317 316 318 319 320 322 323 324 326 325 324 323 323 325 327 329 331 331 331 331 331 331 330 329 328 328 328 327 327 326 326 326 324 322 319 315 311 307 304 302 301 299 297 295 292 291 290 288 286 283 281 279 276 274 271 268 266 263 260 258 256 255 255 255 255 255 254 254 253 253
337 338 341 345 343 339 335 332 333 334 335 332 329 331 328 320 317 316 317 318 316 314 316 317 317 319 320 316 314 314 316 319 321 323 324 326 327 325 324 324 325 326 326 326 326 326 327 328 329 329 329 328 328 327 326 325 325 325 324 324 323 322 319 317 314 311 309 307 305 303 300 296 293 290 288 287 285 282 280 278 276 274 271 268 266 263 261 259 257 256 255 255 255 255 254 253 253
332 334 338 345 345 339 335 332 333 335 335 330 326 328 328 320 314 313 315 315 313 312 313 315 314 317 319 316 312 310 314 319 319 319 320 322 324 325 325 326 327 328 328 328 327 326 326 325 326 326 328 329 329 328 326 325 324 323 323 323 322 321 320 319 317 316 314 311 310 308 306 303 298 293 289 286 284 282 280 278 276 274 272 270 268 266 264 262 260 259 257 256 255 255 254 253 253
328 329 333 341 344 341 337 334 334 336 335 328 324 325 327 321 311 310 313 313 312 310 311 313 312 315 317 315 310 305 312 321 320 317 318 319 322 322 323 324 326 327 327 327 327 328 328 327 327 326 327 328 330 330 329 327 325 323 322 321 320 320 319 318 317 316 315 314 312 311 309 307 305 300 294 289 285 282 280 278 276 274 272 271 269 268 266 264 262 261 260 259 257 256 255 254 253
324 325 329 335 342 342 340 338 336 337 335 325 323 324 326 322 310 306 311 313 311 308 308 311 312 316 317 312 309 301 304 317 319 316 316 318 321 323 324 325 327 328 327 328 328 327 327 327 328 328 328 329 330 331 332 331 330 327 324 321 319 318 317 316 316 315 314 314 312 311 310 309 307 305 301 296 290 285 281 279 277 275 273 271 270 268 266 265 264 262 261 260 259 258 257 256 255
320 322 325 330 338 341 341 341 338 336 332 322 323 325 325 323 310 305 311 313 309 305 305 309 313 317 316 309 307 300 295 304 310 310 311 314 317 320 322 325 328 329 329 329 329 328 327 326 325 327 328 329 330 332 334 335 334 333 330 326 321 317 315 314 313 313 312 312 311 310 309 308 307 306 304 302 297 292 287 282 279 276 274 273 271 269 267 266 264 263 262 261 260 259 258 257 256
318 318 322 327 334 336 339 342 338 335 330 320 323 327 326 323 309 304 312 312 306 303 302 308 314 318 315 307 303 296 288 290 295 299 303 306 309 311 316 321 325 327 328 328 328 328 328 328 327 327 327 327 329 332 334 337 339 338 336 333 328 322 317 314 312 310 309 309 309 308 307 307 306 305 304 302 300 298 294 289 284 280 277 274 272 271 269 268 266 264 263 262 261 260 259 258 257
317 316 319 324 330 332 336 340 337 336 330 320 322 326 325 322 310 306 311 308 305 303 301 308 315 317 314 306 298 291 285 286 288 291 295 299 302 304 308 313 318 322 324 324 325 326 327 329 329 329 328 328 328 330 333 338 342 343 342 340 337 331 324 319 314 310 308 307 306 305 305 305 304 303 302 301 300 298 297 294 291 287 282 278 275 272 271 269 268 267 265 264 262 261 260 259 258
316 316 317 322 326 328 333 336 335 335 331 322 321 324 324 322 313 308 308 305 304 302 301 308 314 316 314 302 292 291 290 292 293 294 295 296 298 300 302 306 310 314 317 319 321 324 326 328 329 330 331 332 331 332 333 336 340 344 345 344 342 339 333 326 320 315 310 307 305 304 303 303 302 302 301 300 299 298 296 295 293 291 288 285 281 278 274 272 270 268 267 265 264 263 261 260 260
316 316 316 319 323 326 330 332 333 334 333 326 320 321 325 323 316 309 306 304 302 301 303 308 313 316 314 302 292 293 296 298 298 296 296 296 296 297 299 302 305 308 312 315 318 322 325 328 331 332 334 335 336 336 336 336 339 342 346 346 345 344 341 335 329 322 316 311 307 304 302 301 300 300 299 298 298 296 295 294 292 291 289 288 286 283 280 277 274 271 269 267 265 264 263 262 261
315 315 315 317 320 324 327 329 330 332 335 330 318 318 324 322 319 311 305 303 301 302 304 305 310 315 314 308 301 300 300 298 295 293 292 292 293 294 297 299 303 306 310 314 318 322 326 329 333 335 336 338 339 339 339 339 340 341 344 345 345 345 344 341 337 331 324 317 312 307 304 302 300 299 298 296 296 294 293 292 291 289 288 287 286 284 283 281 279 276 273 270 267 265 263 262 261
313 313 314 316 318 322 324 326 327 330 336 333 315 313 321 319 319 314 304 301 301 303 304 303 309 316 314 313 311 308 305 296 291 290 290 290 290 291 294 296 301 305 310 316 320 325 328 331 333 336 338 339 340 340 340 340 340 341 342 344 345 344 344 343 341 337 331 324 318 312 308 304 302 299 297 296 294 293 291 290 289 288 287 286 285 283 282 281 280 279 277 275 272 269 266 263 262
311 311 313 315 316 319 321 323 325 327 334 335 317 308 316 316 317 313 306 302 299 299 299 299 306 314 312 315 318 315 312 302 293 294 296 296 296 296 298 300 304 310 315 319 323 327 329 331 333 335 337 338 339 339 339 340 340 340 340 342 344 344 343 342 341 339 336 331 324 318 312 308 304 301 299 297 295 293 291 290 288 287 286 285 284 283 281 280 279 278 277 276 275 272 269 266 263
309 311 313 314 314 317 318 320 324 325 329 334 325 308 310 314 312 308 306 303 296 294 295 296 301 307 309 315 320 319 317 311 301 299 301 301 300 302 307 311 315 319 321 323 325 327 328 330 332 333 335 336 337 338 338 339 339 338 339 340 342 343 342 341 339 338 337 334 330 325 318 312 307 303 300 298 296 294 292 291 289 287 286 284 283 282 281 280 278 277 276 275 275 274 272 269 266
310 311 312 312 312 314 316 318 323 323 324 330 330 312 304 312 309 305 306 301 293 291 292 294 297 300 303 313 321 321 320 317 309 304 305 305 302 302 306 312 316 320 322 323 325 326 328 329 331 333 334 334 335 336 337 337 338 337 337 337 339 341 340 339 338 337 335 334 333 330 325 319 312 307 303 300 298 296 294 292 291 289 288 286 284 282 281 280 278 277 276 275 274 273 272 271 269
311 311 310 310 310 312 315 317 321 321 321 328 330 315 304 310 306 306 307 299 292 291 291 292 296 298 303 316 323 323 322 321 317 313 313 313 311 307 308 311 316 319 321 323 325 327 328 329 331 332 332 332 333 334 335 335 336 336 335 335 336 338 339 338 338 336 334 332 332 331 329 325 319 312 306 302 299 296 294 293 291 290 288 287 285 284 282 281 279 278 277 276 275 273 272 271 270
309 309 307 307 308 310 314 316 318 318 320 326 328 320 306 304 305 308 309 300 294 295 295 295 298 299 305 320 325 323 322 322 322 322 320 320 318 315 314 316 318 320 321 322 323 325 326 327 328 329 330 330 330 331 332 333 333 334 334 334 334 335 337 337 336 335 333 331 330 330 329 328 324 317 309 304 300 296 294 292 291 290 288 287 286 284 283 282 281 280 279 278 277 275 273 272 270
307 306 304 304 307 309 311 314 315 317 321 324 324 323 310 300 305 307 307 303 299 297 296 295 296 295 299 316 323 321 321 323 325 325 324 323 321 319 319 320 321 322 322 321 322 323 324 325 326 327 327 327 328 328 330 331 331 332 332 332 332 333 334 334 334 334 332 331 329 328 328 328 325 320 313 306 300 297 295 292 291 290 288 287 286 285 284 284 283 282 281 280 278 277 275 273 271